Weather History for Bartlesville, OK

Change the Weather History Date:

Sunday, September 22, 2013

  Actual Average Record
Temperature  
Mean Temperature 64 °F -  
Max Temperature 79 °F 82 °F 97 °F (1980)
Min Temperature 48 °F 57 °F 36 °F (1982)
Degree Days  
Heating Degree Days 2    
Growing Degree Days 14 (Base 50)    
Moisture  
Dew Point 51 °F    
Average Humidity 79    
Maximum Humidity 100    
Minimum Humidity 36    
Precipitation  
Precipitation 0.00 in - - ()
Sea Level Pressure  
Sea Level Pressure 29.92 in    
Wind  
Wind Speed 2 mph (SE)    
Max Wind Speed 12 mph    
Max Gust Speed -    
Visibility 9 miles    
Events      
Averages and records for this station are not official NWS values.
T = Trace of Precipitation, MM = Missing Value Source: NWS Daily Summary

Daily Weather History Graph

Daily Weather History Graph

Search for Another Location

Airport:

Trip Planner

Search our weather history database for the weather conditions in past years. The results will help you decide how hot, cold, wet, or windy it might be!

Date:

Astronomy

Sep. 22, 2013 Rise Set
Actual Time 7:12 AM CDT 7:20 PM CDT
Civil Twilight 6:46 AM CDT 7:46 PM CDT
Nautical Twilight 6:16 AM CDT 8:16 PM CDT
Astronomical Twilight 5:45 AM CDT 8:47 PM CDT
Moon 9:17 PM CDT (9/22) 10:27 AM CDT (9/22)
Length of Visible Light 13h 00m
Length of Day
12h 08m
Waning Gibbous, 88% of the Moon is Illuminated
Sep 22
Waning Gibbous
Sep 26
Last Quarter
Oct 4
New
Oct 11
First Quarter
Oct 18
Full

Hourly Weather History & Observations

Time (CDT) Temp. Dew Point Humidity Pressure Visibility Wind Dir Wind Speed Gust Speed Precip Events Conditions
12:53 AM 53.1 °F 52.0 °F 96% 29.94 in 5.0 mi Calm Calm - N/A   Clear
1:53 AM 52.0 °F 52.0 °F 100% 29.93 in 10.0 mi Calm Calm - N/A   Clear
2:53 AM 51.1 °F 51.1 °F 100% 29.92 in 10.0 mi Calm Calm - N/A   Clear
3:53 AM 50.0 °F 48.9 °F 96% 29.92 in 6.0 mi Calm Calm - N/A   Clear
4:53 AM 48.9 °F 48.9 °F 100% 29.93 in 8.0 mi Calm Calm - N/A   Clear
5:53 AM 48.0 °F 48.0 °F 100% 29.93 in 8.0 mi Calm Calm - N/A   Clear
6:26 AM 48.2 °F 48.2 °F 100% 29.96 in 9.0 mi Calm Calm - N/A   Scattered Clouds
6:35 AM 48.2 °F 48.2 °F 100% 29.97 in 9.0 mi Calm Calm - N/A   Mostly Cloudy
6:53 AM 48.0 °F 48.0 °F 100% 29.96 in 7.0 mi Calm Calm - N/A   Mostly Cloudy
7:16 AM 48.2 °F 46.4 °F 93% 29.98 in 8.0 mi Calm Calm - N/A   Scattered Clouds
7:53 AM 50.0 °F 50.0 °F 100% 29.97 in 8.0 mi Calm Calm - N/A   Clear
8:53 AM 57.9 °F 55.9 °F 93% 29.99 in 10.0 mi Calm Calm - N/A   Clear
9:53 AM 64.9 °F 55.0 °F 70% 29.99 in 10.0 mi South 3.5 mph - N/A   Clear
10:53 AM 71.1 °F 53.1 °F 53% 29.98 in 10.0 mi South 8.1 mph - N/A   Clear
11:53 AM 73.0 °F 53.1 °F 49% 29.96 in 10.0 mi SSE 6.9 mph - N/A   Clear
12:53 PM 75.0 °F 51.1 °F 43% 29.94 in 10.0 mi Variable 5.8 mph - N/A   Clear
1:53 PM 77.0 °F 50.0 °F 39% 29.91 in 10.0 mi Variable 6.9 mph - N/A   Clear
2:53 PM 79.0 °F 50.0 °F 36% 29.89 in 10.0 mi Variable 5.8 mph - N/A   Clear
3:53 PM 78.1 °F 50.0 °F 37% 29.87 in 10.0 mi SSE 8.1 mph - N/A   Clear
4:53 PM 78.1 °F 50.0 °F 37% 29.85 in 10.0 mi ESE 11.5 mph - N/A   Clear
5:53 PM 75.9 °F 51.1 °F 42% 29.84 in 10.0 mi SE 9.2 mph - N/A   Clear
6:53 PM 71.1 °F 52.0 °F 51% 29.84 in 10.0 mi SE 4.6 mph - N/A   Clear
7:53 PM 57.9 °F 55.9 °F 93% 29.84 in 10.0 mi Calm Calm - N/A   Clear
8:53 PM 55.9 °F 55.0 °F 97% 29.85 in 10.0 mi Calm Calm - N/A   Clear
9:53 PM 54.0 °F 53.1 °F 97% 29.86 in 10.0 mi Calm Calm - N/A   Clear
10:53 PM 52.0 °F 52.0 °F 100% 29.86 in 10.0 mi Calm Calm - N/A   Clear
11:53 PM 51.1 °F 51.1 °F 100% 29.86 in 10.0 mi Calm Calm - N/A   Clear